When you browse on this site, cookies collect data to enhance your experience and personalize the content and advertising you see.
Visit our Privacy Policy to learn more. By continuing to use the site, you agree to this use of cookies and data.
  • en Suisse
  • Liste des pays
  • À 7 jours
  • Température de l'eau
  • Carte météo
  • Widgets météo
  • user-avatar
    Se connecter

    Météo par heure à Dymytrov

    Ce jour, 27 Février, Jeudi

    Heure Température Précipitation Vent Pression Humidité
    00:00 +3°C° 0 mm 7 m/s 734 mmHg 78%
    01:00 +2°C° 0 mm 6 m/s 734 mmHg 80%
    02:00 +2°C° 0 mm 6 m/s 734 mmHg 82%
    03:00 +2°C° 0 mm 5 m/s 734 mmHg 84%
    04:00 +2°C° 0 mm 5 m/s 734 mmHg 86%
    05:00 +2°C° 0 mm 5 m/s 734 mmHg 88%
    06:00 +3°C° 0 mm 5 m/s 734 mmHg 85%
    07:00 +3°C° 0 mm 6 m/s 734 mmHg 83%
    08:00 +4°C° 0 mm 6 m/s 734 mmHg 81%
    09:00 +6°C° 0 mm 7 m/s 733 mmHg 77%
    10:00 +8°C° 0 mm 7 m/s 733 mmHg 73%
    11:00 +10°C° 0 mm 8 m/s 733 mmHg 70%
    12:00 +10°C° 0 mm 7 m/s 733 mmHg 73%
    13:00 +10°C° 0 mm 7 m/s 733 mmHg 75%
    14:00 +9°C° 0 mm 6 m/s 733 mmHg 78%
    15:00 +9°C° 0 mm 6 m/s 733 mmHg 80%
    16:00 +9°C° 0 mm 6 m/s 732 mmHg 81%
    17:00 +9°C° 0 mm 6 m/s 732 mmHg 83%
    18:00 +9°C° 0 mm 6 m/s 732 mmHg 83%
    19:00 +8°C° 0 mm 7 m/s 733 mmHg 84%
    20:00 +8°C° 0 mm 7 m/s 733 mmHg 84%
    21:00 +8°C° 0 mm 7 m/s 732 mmHg 84%
    22:00 +8°C° 0 mm 7 m/s 732 mmHg 85%
    23:00 +8°C° 0 mm 7 m/s 732 mmHg 85%

    Demain, 28 Février, Vendredi

    Heure Température Précipitation Vent Pression Humidité
    00:00 +6°C° 0.3 mm 7 m/s 732 mmHg 83%
    01:00 +6°C° 0.3 mm 7 m/s 731 mmHg 82%
    02:00 +6°C° 0.3 mm 7 m/s 731 mmHg 81%
    03:00 +6°C° 0.5 mm 7 m/s 730 mmHg 83%
    04:00 +5°C° 0.5 mm 7 m/s 730 mmHg 85%
    05:00 +5°C° 0.5 mm 7 m/s 729 mmHg 87%
    06:00 +5°C° 0.2 mm 8 m/s 729 mmHg 84%
    07:00 +4°C° 0.2 mm 8 m/s 729 mmHg 80%
    08:00 +3°C° 0.2 mm 9 m/s 729 mmHg 77%
    09:00 +3°C° 0 mm 9 m/s 730 mmHg 76%
    10:00 +2°C° 0 mm 8 m/s 730 mmHg 76%
    11:00 +1°C° 0 mm 8 m/s 730 mmHg 76%
    12:00 +1°C° 0.1 mm 9 m/s 732 mmHg 76%
    13:00 +1°C° 0.1 mm 10 m/s 733 mmHg 77%
    14:00 +1°C° 0.1 mm 11 m/s 734 mmHg 78%
    15:00 +1°C° 0 mm 9 m/s 736 mmHg 75%
    16:00 +2°C° 0 mm 7 m/s 737 mmHg 71%
    17:00 +1°C° 0 mm 5 m/s 738 mmHg 68%
    18:00 +1°C° 0 mm 5 m/s 739 mmHg 70%
    19:00 0°C° 0 mm 4 m/s 739 mmHg 73%
    20:00 0°C° 0 mm 3 m/s 740 mmHg 76%
    21:00 0°C° 0 mm 3 m/s 740 mmHg 77%
    22:00 +1°C° 0 mm 2 m/s 741 mmHg 79%
    23:00 +1°C° 0 mm 2 m/s 741 mmHg 80%

    Après-demain, 29 Février, Samedi

    Heure Température Précipitation Vent Pression Humidité
    00:00 +1°C° 0 mm 2 m/s 741 mmHg 81%
    01:00 +2°C° 0 mm 1 m/s 741 mmHg 81%
    02:00 +1°C° 0 mm 1 m/s 741 mmHg 82%
    03:00 +1°C° 0 mm 1 m/s 741 mmHg 82%
    04:00 +1°C° 0 mm 1 m/s 741 mmHg 81%
    05:00 -1°C° 0 mm 2 m/s 741 mmHg 81%
    06:00 +2°C° 0 mm 1 m/s 741 mmHg 78%
    07:00 +2°C° 0 mm 1 m/s 742 mmHg 75%
    08:00 +3°C° 0 mm 1 m/s 742 mmHg 72%
    09:00 +4°C° 0 mm 1 m/s 742 mmHg 66%
    10:00 +5°C° 0 mm 1 m/s 742 mmHg 61%
    11:00 +6°C° 0 mm 1 m/s 742 mmHg 56%
    12:00 +6°C° 0 mm 1 m/s 742 mmHg 53%
    13:00 +7°C° 0 mm 1 m/s 742 mmHg 50%
    14:00 +6°C° 0 mm 0 m/s 742 mmHg 48%
    15:00 +7°C° 0 mm 1 m/s 742 mmHg 51%
    16:00 +6°C° 0 mm 1 m/s 742 mmHg 54%
    17:00 +6°C° 0 mm 1 m/s 743 mmHg 58%
    18:00 +5°C° 0 mm 1 m/s 743 mmHg 60%
    19:00 +5°C° 0 mm 1 m/s 744 mmHg 63%
    20:00 +4°C° 0 mm 1 m/s 744 mmHg 65%
    21:00 +4°C° 0 mm 1 m/s 744 mmHg 68%
    22:00 +2°C° 0 mm 0 m/s 744 mmHg 70%
    23:00 +2°C° 0 mm 0 m/s 745 mmHg 72%

    1 Mars, Dimanche

    Heure Température Précipitation Vent Pression Humidité
    00:00 +2°C° 0 mm 0 m/s 745 mmHg 73%
    01:00 +1°C° 0 mm 0 m/s 745 mmHg 74%
    02:00 +1°C° 0 mm 0 m/s 745 mmHg 75%
    03:00 +1°C° 0 mm 0 m/s 746 mmHg 75%
    04:00 +1°C° 0 mm 0 m/s 746 mmHg 74%
    05:00 +2°C° 0 mm 1 m/s 746 mmHg 74%
    06:00 +3°C° 0 mm 1 m/s 747 mmHg 72%
    07:00 +3°C° 0 mm 1 m/s 747 mmHg 70%
    08:00 +4°C° 0 mm 1 m/s 748 mmHg 68%
    09:00 +5°C° 0 mm 1 m/s 748 mmHg 64%
    10:00 +6°C° 0 mm 1 m/s 748 mmHg 59%
    11:00 +7°C° 0 mm 1 m/s 748 mmHg 55%
    12:00 +7°C° 0 mm 1 m/s 748 mmHg 52%
    13:00 +8°C° 0 mm 1 m/s 748 mmHg 49%
    14:00 +8°C° 0 mm 1 m/s 748 mmHg 46%
    15:00 +8°C° 0 mm 1 m/s 748 mmHg 49%
    16:00 +7°C° 0 mm 1 m/s 748 mmHg 52%
    17:00 +7°C° 0 mm 1 m/s 748 mmHg 55%
    18:00 +5°C° 0 mm 2 m/s 748 mmHg 58%
    19:00 +5°C° 0 mm 2 m/s 749 mmHg 61%
    20:00 +3°C° 0 mm 3 m/s 749 mmHg 64%
    21:00 +2°C° 0 mm 3 m/s 749 mmHg 68%
    22:00 +2°C° 0 mm 3 m/s 749 mmHg 73%
    23:00 +2°C° 0 mm 2 m/s 749 mmHg 78%

    2 Mars, Lundi

    Heure Température Précipitation Vent Pression Humidité
    00:00 +2°C° 0 mm 2 m/s 749 mmHg 78%
    01:00 +1°C° 0 mm 2 m/s 749 mmHg 78%
    02:00 +1°C° 0 mm 2 m/s 749 mmHg 77%
    03:00 0°C° 0 mm 3 m/s 749 mmHg 79%
    04:00 0°C° 0 mm 3 m/s 748 mmHg 80%
    05:00 0°C° 0 mm 3 m/s 748 mmHg 81%
    06:00 -1°C° 0 mm 4 m/s 748 mmHg 80%
    07:00 0°C° 0 mm 4 m/s 748 mmHg 79%
    08:00 +1°C° 0 mm 5 m/s 748 mmHg 78%
    09:00 +2°C° 0 mm 6 m/s 748 mmHg 72%
    10:00 +2°C° 0 mm 6 m/s 748 mmHg 67%
    11:00 +3°C° 0 mm 6 m/s 748 mmHg 61%
    12:00 +4°C° 0 mm 6 m/s 747 mmHg 59%
    13:00 +4°C° 0 mm 7 m/s 747 mmHg 56%
    14:00 +5°C° 0 mm 7 m/s 746 mmHg 54%
    15:00 +4°C° 0 mm 6 m/s 746 mmHg 58%
    16:00 +4°C° 0 mm 6 m/s 745 mmHg 63%
    17:00 +3°C° 0 mm 5 m/s 745 mmHg 68%
    18:00 +3°C° 0 mm 5 m/s 745 mmHg 70%
    19:00 +3°C° 0 mm 6 m/s 745 mmHg 72%
    20:00 +2°C° 0 mm 6 m/s 745 mmHg 75%
    21:00 +2°C° 0 mm 6 m/s 744 mmHg 73%
    22:00 +2°C° 0 mm 7 m/s 744 mmHg 72%
    23:00 +2°C° 0 mm 7 m/s 744 mmHg 71%

    3 Mars, Mardi

    Heure Température Précipitation Vent Pression Humidité
    00:00 +2°C° 0 mm 7 m/s 743 mmHg 70%
    01:00 +2°C° 0 mm 7 m/s 743 mmHg 70%
    02:00 +2°C° 0 mm 7 m/s 743 mmHg 69%
    03:00 +2°C° 0.1 mm 7 m/s 743 mmHg 71%
    04:00 +2°C° 0.1 mm 7 m/s 742 mmHg 73%
    05:00 0°C° 0.1 mm 7 m/s 742 mmHg 75%
    06:00 0°C° 0.5 mm 7 m/s 742 mmHg 79%
    07:00 0°C° 0.5 mm 7 m/s 742 mmHg 82%
    08:00 0°C° 0.5 mm 8 m/s 742 mmHg 86%
    09:00 +2°C° 0.1 mm 7 m/s 742 mmHg 82%
    10:00 +3°C° 0.1 mm 7 m/s 742 mmHg 78%
    11:00 +4°C° 0.1 mm 7 m/s 741 mmHg 73%
    12:00 +5°C° 0 mm 7 m/s 741 mmHg 73%
    13:00 +7°C° 0 mm 6 m/s 741 mmHg 73%
    14:00 +9°C° 0 mm 6 m/s 741 mmHg 72%
    15:00 +9°C° 0 mm 5 m/s 741 mmHg 75%
    16:00 +10°C° 0 mm 4 m/s 741 mmHg 77%
    17:00 +9°C° 0 mm 3 m/s 741 mmHg 80%
    18:00 +9°C° 0 mm 3 m/s 741 mmHg 82%
    19:00 +8°C° 0 mm 3 m/s 742 mmHg 84%
    20:00 +7°C° 0 mm 4 m/s 742 mmHg 86%
    21:00 +8°C° 0 mm 3 m/s 742 mmHg 87%
    22:00 +7°C° 0 mm 3 m/s 742 mmHg 88%
    23:00 +7°C° 0 mm 3 m/s 742 mmHg 89%
    Voir plus